period_start,C,m1,H,J0,J1,J2,J3,J4,J5,JA,JB,JC,JD,JJ,JK,JN,#
2018-10-21 00:01:29,0.00,0.00,0.00,21.39,25.65,27.91,0.01,0.12,1015.64,2032.00,3646.92,3086.11,3551.08,0.00,0.00,0.00,0000 0000 0000 A000 020008
2018-10-21 00:06:30,0.00,0.00,0.00,21.39,25.66,27.92,0.01,0.07,1015.64,2032.00,3646.71,3086.08,3551.02,0.00,0.00,0.00,0000 0000 0000 A000 020008
2018-10-21 00:11:31,0.00,0.00,0.00,21.40,25.67,27.91,0.02,0.02,1015.65,2032.00,3646.19,3086.02,3551.00,0.00,0.00,0.00,0000 0000 0000 A000 020008
2018-10-21 00:16:33,0.00,0.00,0.00,21.41,25.70,27.92,0.02,0.01,1015.65,2032.00,3646.03,3086.00,3550.99,0.00,0.00,0.00,0000 0000 0000 A000 020008
2018-10-21 00:21:34,0.00,0.00,0.00,21.40,25.70,27.96,0.01,0.01,1015.64,2032.00,3646.01,3085.99,3550.96,0.00,0.00,0.00,0000 0000 0000 A000 020008
2018-10-21 00:26:35,0.00,0.00,0.00,21.42,25.72,27.96,0.02,0.00,1015.65,2032.00,3646.00,3085.99,3550.93,0.00,0.00,0.00,0000 0000 0000 A000 020008
2018-10-21 00:31:36,0.00,0.00,0.00,21.42,25.73,27.97,0.02,0.01,1015.64,2032.00,3646.00,3085.98,3550.70,0.00,0.00,0.00,0000 0000 0000 A000 020008
2018-10-21 00:36:37,0.00,0.00,0.00,21.43,25.75,27.97,0.02,0.00,1015.64,2032.00,3646.00,3085.99,3550.72,0.00,0.00,0.00,0000 0000 0000 A000 020008
2018-10-21 00:41:38,0.00,0.00,0.00,21.44,25.76,27.94,0.02,0.00,1015.64,2032.00,3646.00,3085.99,3550.48,0.00,0.00,0.00,0000 0000 0000 A000 020008
2018-10-21 00:46:40,0.00,0.00,0.00,21.45,25.77,28.00,0.01,0.02,1015.64,2031.99,3646.00,3085.96,3550.17,0.00,0.00,0.00,0000 0000 0000 A000 020008
2018-10-21 00:51:41,0.00,0.00,0.00,21.47,25.78,28.02,0.01,0.00,1015.64,2031.99,3645.99,3085.83,3550.02,0.00,0.00,0.00,0000 0000 0000 A000 020008
2018-10-21 00:56:41,0.00,0.00,0.00,21.47,25.80,28.01,0.02,0.00,1015.64,2031.98,3645.97,3085.78,3550.00,0.00,0.00,0.00,0000 0000 0000 A000 020008
2018-10-21 01:01:42,0.00,0.00,0.00,21.49,25.81,28.04,0.02,0.02,1015.64,2031.98,3645.95,3085.47,3550.00,0.00,0.00,0.00,0000 0000 0000 A000 020008
2018-10-21 01:06:43,0.00,0.00,0.00,21.50,25.82,28.02,0.03,0.01,1015.63,2031.94,3645.88,3085.24,3550.00,0.00,0.00,0.00,0000 0000 0000 A000 020008
2018-10-21 01:11:44,0.00,0.00,0.00,21.51,25.83,28.03,0.02,0.01,1015.62,2031.65,3645.27,3085.04,3550.00,0.00,0.00,0.00,0000 0000 0000 A000 020008
2018-10-21 01:16:45,0.00,0.00,0.00,21.52,25.85,28.03,0.01,0.10,1015.51,2031.26,3645.04,3085.01,3549.98,0.00,0.00,0.00,0000 0000 0000 A000 020008
2018-10-21 01:21:46,0.00,0.00,0.00,21.52,25.85,28.05,0.03,0.23,1015.47,2031.20,3645.02,3085.00,3549.94,0.00,0.00,0.00,0000 0000 0000 A000 020008
2018-10-21 01:26:48,0.00,0.00,0.00,21.54,25.87,28.08,0.02,0.23,1015.53,2031.18,3645.01,3085.00,3549.78,0.00,0.00,0.00,0000 0000 0000 A000 020008
2018-10-21 01:31:49,0.00,0.00,0.00,21.54,25.87,28.08,0.03,0.23,1015.42,2031.09,3645.00,3085.00,3549.58,0.00,0.00,0.00,0000 0000 0000 A000 020008
2018-10-21 01:36:50,0.00,0.00,0.00,21.54,25.89,28.07,0.02,0.15,1015.59,2031.05,3645.00,3085.00,3549.29,0.00,0.00,0.00,0000 0000 0000 A000 020008
2018-10-21 01:41:51,0.00,0.00,0.00,21.54,25.90,28.05,0.02,0.25,1015.53,2031.03,3645.00,3085.00,3549.12,0.00,0.00,0.00,0000 0000 0000 A000 020008
2018-10-21 01:46:52,0.00,0.00,0.00,21.54,25.90,28.09,0.01,0.25,1015.62,2031.01,3645.00,3084.99,3549.04,0.00,0.00,0.00,0000 0000 0000 A000 020008
2018-10-21 01:51:53,0.00,0.00,0.00,21.54,25.92,28.07,0.01,0.23,1015.64,2031.00,3644.96,3084.95,3549.00,0.00,0.00,0.00,0000 0000 0000 A000 020008
2018-10-21 01:56:54,0.00,0.00,0.00,21.53,25.92,28.04,0.02,0.15,1015.64,2031.00,3644.95,3084.93,3549.00,0.00,0.00,0.00,0000 0000 0000 A000 020008
2018-10-21 02:01:56,0.00,0.00,0.00,21.52,25.93,28.06,0.03,0.00,1015.65,2031.00,3644.86,3084.70,3549.00,0.00,0.00,0.00,0000 0000 0000 A000 020008
2018-10-21 02:06:57,0.00,0.00,0.00,21.51,25.95,28.07,0.02,0.00,1015.66,2031.00,3644.66,3084.37,3548.99,0.00,0.00,0.00,0000 0000 0000 A000 020008
2018-10-21 02:11:58,0.00,0.00,0.00,21.50,25.95,28.06,0.01,0.01,1015.67,2030.99,3644.22,3084.13,3548.98,0.00,0.00,0.00,0000 0000 0000 A000 020008
2018-10-21 02:16:59,0.00,0.00,0.00,21.52,25.95,28.04,0.01,0.00,1015.71,2030.99,3644.12,3084.06,3548.97,0.00,0.00,0.00,0000 0000 0000 A000 020008
2018-10-21 02:22:00,0.00,0.00,0.00,21.52,25.96,28.01,0.02,0.00,1015.70,2030.99,3644.11,3084.06,3548.97,0.00,0.00,0.00,0000 0000 0000 A000 020008
2018-10-21 02:27:01,0.00,0.00,0.00,21.53,25.97,28.02,0.02,0.00,1015.68,2030.99,3644.04,3084.04,3548.88,0.00,0.00,0.00,0000 0000 0000 A000 020008
2018-10-21 02:32:02,0.00,0.00,0.00,21.54,25.97,28.02,0.02,0.03,1015.69,2030.97,3644.03,3084.03,3548.79,0.00,0.00,0.00,0000 0000 0000 A000 020008
2018-10-21 02:37:03,0.00,0.00,0.00,21.56,25.97,28.06,0.01,0.01,1015.77,2030.98,3644.03,3084.02,3548.78,0.00,0.00,0.00,0000 0000 0000 A000 020008
2018-10-21 02:42:04,0.00,0.00,0.00,21.58,25.99,28.09,0.01,0.06,1015.88,2030.97,3644.01,3084.01,3548.44,0.00,0.00,0.00,0000 0000 0000 A000 020008
2018-10-21 02:47:05,0.00,0.00,0.00,21.59,26.00,28.10,0.01,0.03,1015.74,2030.97,3644.01,3084.01,3548.49,0.00,0.00,0.00,0000 0000 0000 A000 020008
2018-10-21 02:52:06,0.00,0.00,0.00,21.62,26.00,28.11,0.02,0.01,1015.82,2030.95,3644.00,3084.00,3548.07,0.00,0.00,0.00,0000 0000 0000 A000 020008
2018-10-21 02:57:08,0.00,0.00,0.00,21.64,26.00,28.12,0.02,0.06,1015.79,2030.92,3644.00,3084.00,3548.02,0.00,0.00,0.00,0000 0000 0000 A000 020008
2018-10-21 03:02:09,0.00,0.00,0.00,21.66,26.02,28.15,0.01,0.00,1015.76,2030.77,3644.00,3083.99,3548.00,0.00,0.00,0.00,0000 0000 0000 A000 020008
2018-10-21 03:07:10,0.00,0.00,0.00,21.67,26.02,28.16,0.02,0.01,1015.70,2030.85,3643.99,3083.99,3548.00,0.00,0.00,0.00,0000 0000 0000 A000 020008
2018-10-21 03:12:11,0.00,0.00,0.00,21.67,26.03,28.18,0.01,0.02,1015.73,2030.79,3643.99,3083.99,3548.00,0.00,0.00,0.00,0000 0000 0000 A000 020008
2018-10-21 03:17:13,0.00,0.00,0.00,21.69,26.05,28.19,0.02,0.04,1015.74,2030.62,3643.98,3083.98,3548.00,0.00,0.00,0.00,0000 0000 0000 A000 020008
2018-10-21 03:22:14,0.00,0.00,0.00,21.71,26.05,28.19,0.01,0.02,1015.70,2030.39,3643.97,3083.97,3548.00,0.00,0.00,0.00,0000 0000 0000 A000 020008
2018-10-21 03:27:15,0.00,0.00,0.00,21.72,26.06,28.22,0.02,0.11,1015.66,2030.32,3643.92,3083.94,3548.00,0.00,0.00,0.00,0000 0000 0000 A000 020008
2018-10-21 03:32:16,0.00,0.00,0.00,21.72,26.07,28.21,0.02,0.23,1015.65,2030.09,3643.73,3083.88,3547.96,0.00,0.00,0.00,0000 0000 0000 A000 020008
2018-10-21 03:37:18,0.00,0.00,0.00,21.74,26.07,28.23,0.01,0.27,1015.64,2030.10,3643.51,3083.72,3547.97,0.00,0.00,0.00,0000 0000 0000 A000 020008
2018-10-21 03:42:19,0.00,0.00,0.00,21.74,26.09,28.25,0.01,0.29,1015.64,2030.05,3643.29,3083.54,3547.93,0.00,0.00,0.00,0000 0000 0000 A000 020008
2018-10-21 03:47:20,0.00,0.00,0.00,21.74,26.10,28.26,0.02,0.27,1015.64,2030.05,3643.28,3083.47,3547.93,0.00,0.00,0.00,0000 0000 0000 A000 020008
2018-10-21 03:52:22,0.00,0.00,0.00,21.71,26.10,28.23,0.02,0.20,1015.67,2030.02,3643.14,3083.27,3547.83,0.00,0.00,0.00,0000 0000 0000 A000 020008
2018-10-21 03:57:23,0.00,0.00,0.00,21.69,26.11,28.21,0.02,0.17,1015.68,2030.02,3643.03,3083.07,3547.37,0.00,0.00,0.00,0000 0000 0000 A000 020008
2018-10-21 04:02:24,0.00,0.00,0.00,21.69,26.12,28.17,0.02,0.17,1015.65,2030.00,3643.01,3083.03,3547.15,0.00,0.00,0.00,0000 0000 0000 A000 020008
2018-10-21 04:07:26,0.00,0.00,0.00,21.69,26.12,28.20,0.02,0.24,1015.65,2030.00,3643.01,3083.05,3547.14,0.00,0.00,0.00,0000 0000 0000 A000 020008
2018-10-21 04:12:27,0.00,0.00,0.00,21.69,26.12,28.17,0.01,0.29,1015.64,2030.00,3643.00,3083.01,3547.07,0.00,0.00,0.00,0000 0000 0000 A000 020008
2018-10-21 04:17:28,0.00,0.00,0.00,21.69,26.12,28.20,0.01,0.25,1015.65,2030.00,3643.01,3083.02,3547.04,0.00,0.00,0.00,0000 0000 0000 A000 020008
2018-10-21 04:22:29,0.00,0.00,0.00,21.69,26.13,28.17,0.02,0.20,1015.66,2030.01,3643.02,3083.02,3547.06,0.00,0.00,0.00,0000 0000 0000 A000 020008
2018-10-21 04:27:30,0.00,0.00,0.00,21.68,26.14,28.17,0.01,0.26,1015.64,2030.00,3643.00,3083.02,3547.04,0.00,0.00,0.00,0000 0000 0000 A000 020008
2018-10-21 04:32:31,0.00,0.00,0.00,21.67,26.15,28.16,0.02,0.25,1015.65,2030.00,3643.00,3083.01,3547.02,0.00,0.00,0.00,0000 0000 0000 A000 020008
2018-10-21 04:37:32,0.00,0.00,0.00,21.67,26.15,28.19,0.02,0.27,1015.63,2030.00,3643.00,3083.00,3547.01,0.00,0.00,0.00,0000 0000 0000 A000 020008
2018-10-21 04:42:33,0.00,0.00,0.00,21.66,26.15,28.18,0.01,0.31,1015.62,2030.00,3643.00,3083.00,3547.00,0.00,0.00,0.00,0000 0000 0000 A000 020008
2018-10-21 04:47:35,0.00,0.00,0.00,21.64,26.15,28.13,0.02,0.33,1015.64,2030.00,3643.00,3083.00,3547.00,0.00,0.00,0.00,0000 0000 0000 A000 020008
2018-10-21 04:52:36,0.00,0.00,0.00,21.62,26.15,28.16,0.01,0.29,1015.64,2030.00,3643.00,3083.00,3547.00,0.00,0.00,0.00,0000 0000 0000 A000 020008
2018-10-21 04:57:37,0.00,0.00,0.00,21.62,26.15,28.10,0.01,0.28,1015.64,2030.00,3643.00,3083.00,3547.00,0.00,0.00,0.00,0000 0000 0000 A000 020008
2018-10-21 05:02:38,0.00,0.00,0.00,21.61,26.15,28.06,0.01,0.27,1015.64,2030.00,3643.00,3083.00,3547.01,0.00,0.00,0.00,0000 0000 0000 A000 020008
2018-10-21 05:07:40,0.00,0.00,0.00,21.58,26.14,28.07,0.01,0.25,1015.64,2030.00,3643.00,3083.02,3547.02,0.00,0.00,0.00,0000 0000 0000 A000 020008
2018-10-21 05:12:41,0.00,0.00,0.00,21.56,26.13,28.06,0.01,0.27,1015.64,2030.00,3643.00,3083.02,3547.01,0.00,0.00,0.00,0000 0000 0000 A000 020008
2018-10-21 05:17:42,0.00,0.00,0.00,21.54,26.12,28.02,0.01,0.25,1015.65,2030.00,3643.01,3083.04,3547.05,0.00,0.00,0.00,0000 0000 0000 A000 020008
2018-10-21 05:22:43,0.00,0.00,0.00,21.54,26.12,28.07,0.01,0.25,1015.66,2030.00,3643.01,3083.03,3547.07,0.00,0.00,0.00,0000 0000 0000 A000 020008
2018-10-21 05:27:44,0.00,0.00,0.00,21.51,26.12,28.03,0.01,0.29,1015.66,2030.00,3643.01,3083.01,3547.04,0.00,0.00,0.00,0000 0000 0000 A000 020008
2018-10-21 05:32:46,0.00,0.00,0.00,21.50,26.11,27.98,0.02,0.30,1015.65,2030.00,3643.01,3083.04,3547.03,0.00,0.00,0.00,0000 0000 0000 A000 020008
2018-10-21 05:37:47,0.00,0.00,0.00,21.49,26.10,27.95,0.03,0.30,1015.65,2030.01,3643.04,3083.12,3547.15,0.00,0.00,0.00,0000 0000 0000 A000 020008
2018-10-21 05:42:47,0.00,0.00,0.00,21.47,26.10,27.89,0.01,0.27,1015.64,2030.01,3643.07,3083.33,3547.43,0.00,0.00,0.00,0000 0000 0000 A000 020008
2018-10-21 05:47:49,0.00,0.00,0.00,21.45,26.10,27.90,0.02,0.29,1015.64,2030.01,3643.11,3083.42,3547.53,0.00,0.00,0.00,0000 0000 0000 A000 020008
2018-10-21 05:52:50,0.00,0.00,0.00,21.43,26.08,27.90,0.01,0.28,1015.66,2030.01,3643.07,3083.36,3547.41,0.00,0.00,0.00,0000 0000 0000 A000 020008
2018-10-21 05:57:51,0.00,0.00,0.00,21.43,26.07,27.86,0.02,0.33,1015.66,2030.01,3643.11,3083.47,3547.58,0.00,0.00,0.00,0000 0000 0000 A000 020008
2018-10-21 06:02:52,0.00,0.00,0.00,21.42,26.07,27.84,0.01,0.26,1015.72,2030.01,3643.21,3083.67,3547.81,0.00,0.00,0.00,0000 0000 0000 A000 020008
2018-10-21 06:07:53,0.00,0.00,0.00,21.39,26.05,27.87,0.02,0.22,1015.89,2030.03,3643.53,3083.91,3547.93,0.00,0.00,0.00,0000 0000 0000 A000 020008
2018-10-21 06:12:54,0.00,0.00,0.00,21.37,26.05,27.86,0.01,0.20,1015.89,2030.06,3643.67,3083.93,3547.97,0.00,0.00,0.00,0000 0000 0000 A000 020008
2018-10-21 06:17:56,0.00,0.00,0.00,21.36,26.04,27.84,0.01,0.26,1015.80,2030.06,3643.71,3083.96,3547.95,0.00,0.00,0.00,0000 0000 0000 A000 020008
2018-10-21 06:22:57,0.00,0.00,0.00,21.35,26.02,27.79,0.01,0.27,1016.04,2030.17,3643.93,3083.98,3547.99,0.00,0.00,0.00,0000 0000 0000 A000 020008
2018-10-21 06:27:58,0.00,0.00,0.00,21.34,26.02,27.77,0.01,0.25,1016.13,2030.33,3643.97,3083.99,3547.99,0.00,0.00,0.00,0000 0000 0000 A000 020008
2018-10-21 06:32:59,0.00,0.00,0.00,21.34,26.01,27.78,0.01,0.24,1016.13,2030.59,3643.99,3083.99,3547.99,0.00,0.00,0.00,0000 0000 0000 A000 020008
2018-10-21 06:38:01,0.00,0.00,0.00,21.34,26.00,27.75,0.01,0.25,1016.13,2030.63,3643.98,3083.99,3547.99,0.00,0.00,0.00,0000 0000 0000 A000 020008
2018-10-21 06:43:02,0.00,0.00,0.00,21.33,26.00,27.79,0.01,0.25,1016.13,2030.78,3643.99,3083.99,3547.99,0.00,0.00,0.00,0000 0000 0000 A000 020008
2018-10-21 06:48:03,0.00,0.00,0.00,21.32,25.99,27.83,0.02,0.29,1016.13,2030.86,3643.99,3084.00,3548.01,0.00,0.00,0.00,0000 0000 0000 A000 020008
2018-10-21 06:53:05,0.00,0.00,0.00,21.32,25.97,27.79,0.02,0.17,1016.15,2030.91,3643.99,3084.01,3548.02,0.00,0.00,0.00,0000 0000 0000 A000 020008
2018-10-21 06:58:06,0.00,0.00,0.00,21.30,25.97,27.77,0.01,0.25,1016.14,2030.96,3643.99,3084.01,3548.03,0.00,0.00,0.00,0000 0000 0000 A000 020008
2018-10-21 07:03:07,0.00,0.00,0.00,21.30,25.97,27.81,0.02,0.24,1016.14,2030.97,3644.00,3084.02,3548.09,0.00,0.00,0.00,0000 0000 0000 A000 020008
2018-10-21 07:08:08,0.00,0.00,0.00,21.29,25.96,27.78,0.01,0.14,1016.29,2030.97,3644.00,3084.04,3548.13,0.00,0.00,0.00,0000 0000 0000 A000 020008
2018-10-21 07:13:10,0.00,0.00,0.00,21.29,25.95,27.77,0.01,0.16,1016.34,2030.98,3644.01,3084.05,3548.20,0.00,0.00,0.00,0000 0000 0000 A000 020008
2018-10-21 07:18:11,0.00,0.00,0.00,21.28,25.95,27.76,0.01,0.03,1016.52,2030.96,3644.00,3084.03,3548.11,0.00,0.00,0.00,0000 0000 0000 A000 020008
2018-10-21 07:23:12,0.00,0.00,0.00,21.29,25.94,27.81,0.01,0.05,1016.59,2030.97,3644.00,3084.02,3548.08,0.00,0.00,0.00,0000 0000 0000 A000 020008
2018-10-21 07:28:14,0.00,0.00,0.00,21.28,25.92,27.79,0.02,0.03,1016.61,2030.98,3644.00,3084.06,3548.18,0.00,0.00,0.00,0000 0000 0000 A000 020008
2018-10-21 07:33:15,0.00,0.00,0.00,21.28,25.92,27.76,0.02,0.00,1016.61,2030.98,3644.01,3084.04,3548.11,0.00,0.00,0.00,0000 0000 0000 A000 020008
2018-10-21 07:38:16,0.00,0.00,0.00,21.28,25.92,27.77,0.01,0.00,1016.62,2030.99,3644.01,3084.10,3548.37,0.00,0.00,0.00,0000 0000 0000 A000 020008
2018-10-21 07:43:17,0.00,0.00,0.00,21.29,25.92,27.82,0.01,0.01,1016.62,2030.98,3644.02,3084.16,3548.68,0.00,0.00,0.00,0000 0000 0000 A000 020008
2018-10-21 07:48:18,0.00,0.00,0.00,21.30,25.92,27.81,0.01,0.02,1016.62,2030.98,3644.03,3084.23,3548.69,0.00,0.00,0.00,0000 0000 0000 A000 020008
2018-10-21 07:53:20,0.00,0.00,0.00,21.32,25.92,27.83,0.01,0.10,1016.62,2030.99,3644.02,3084.27,3548.69,0.00,0.00,0.00,0000 0000 0000 A000 020008
2018-10-21 07:58:21,0.00,0.00,0.00,21.34,25.91,27.86,0.00,0.15,1016.62,2030.99,3644.02,3084.29,3548.65,0.00,0.00,0.00,0000 0000 0000 A000 020008
2018-10-21 08:03:22,0.00,0.00,0.00,21.35,25.91,27.89,0.01,0.13,1016.61,2030.98,3644.04,3084.37,3548.83,0.00,0.00,0.00,0000 0000 0000 A000 020008
2018-10-21 08:08:23,0.00,0.00,0.00,21.37,25.91,27.86,0.01,0.20,1016.60,2030.99,3644.04,3084.26,3548.76,0.00,0.00,0.00,0000 0000 0000 A000 020008
2018-10-21 08:13:24,0.00,0.00,0.00,21.37,25.91,27.86,0.02,0.14,1016.61,2030.99,3644.04,3084.48,3548.87,0.00,0.00,0.00,0000 0000 0000 A000 020008
2018-10-21 08:18:26,0.00,0.00,0.00,21.35,25.91,27.89,0.01,0.13,1016.62,2030.99,3644.10,3084.65,3548.93,0.00,0.00,0.00,0000 0000 0000 A000 020008
2018-10-21 08:23:27,0.00,0.00,0.00,21.37,25.91,27.88,0.00,0.18,1016.62,2030.99,3644.11,3084.78,3548.94,0.00,0.00,0.00,0000 0000 0000 A000 020008
2018-10-21 08:28:28,0.00,0.00,0.00,21.37,25.91,27.83,0.01,0.09,1016.62,2030.99,3644.10,3084.61,3548.89,0.00,0.00,0.00,0000 0000 0000 A000 020008
2018-10-21 08:33:29,0.00,0.00,0.00,21.38,25.92,27.85,0.01,0.17,1016.62,2030.99,3644.03,3084.49,3548.83,0.00,0.00,0.00,0000 0000 0000 A000 020008
2018-10-21 08:38:30,0.00,0.00,0.00,21.39,25.92,27.88,0.01,0.19,1016.62,2030.99,3644.11,3084.76,3548.95,0.00,0.00,0.00,0000 0000 0000 A000 020008
2018-10-21 08:43:31,0.00,0.00,0.00,21.39,25.92,27.96,0.01,0.11,1016.62,2030.99,3644.11,3084.79,3548.96,0.00,0.00,0.00,0000 0000 0000 A000 020008
2018-10-21 08:48:33,0.00,0.00,0.00,21.40,25.92,27.93,0.00,0.15,1016.63,2030.99,3644.07,3084.73,3548.92,0.00,0.00,0.00,0000 0000 0000 A000 020008
2018-10-21 08:53:34,0.00,0.00,0.00,21.39,25.92,27.92,0.01,0.12,1016.66,2030.98,3644.04,3084.45,3548.77,0.00,0.00,0.00,0000 0000 0000 A000 020008
2018-10-21 08:58:35,0.00,0.00,0.00,21.39,25.92,27.96,0.01,0.13,1016.70,2030.98,3644.03,3084.34,3548.65,0.00,0.00,0.00,0000 0000 0000 A000 020008
2018-10-21 09:03:37,0.00,0.00,0.00,21.41,25.92,27.96,0.01,0.23,1016.63,2030.98,3644.00,3084.26,3548.52,0.00,0.00,0.00,0000 0000 0000 A000 020008
2018-10-21 09:08:37,0.00,0.00,0.00,21.41,25.92,27.93,0.01,0.26,1016.63,2030.98,3644.02,3084.23,3548.57,0.00,0.00,0.00,0000 0000 0000 A000 020008
2018-10-21 09:13:39,0.00,0.00,0.00,21.41,25.92,27.94,0.00,0.19,1016.64,2030.99,3644.03,3084.24,3548.57,0.00,0.00,0.00,0000 0000 0000 A000 020008
2018-10-21 09:18:40,0.00,0.00,0.00,21.42,25.93,27.95,0.00,0.18,1016.68,2030.98,3644.01,3084.10,3548.32,0.00,0.00,0.00,0000 0000 0000 A000 020008
2018-10-21 09:23:42,0.00,0.00,0.00,21.42,25.94,27.94,0.00,0.18,1016.68,2030.98,3644.03,3084.34,3548.66,0.00,0.00,0.00,0000 0000 0000 A000 020008
2018-10-21 09:28:43,0.00,0.00,0.00,21.42,25.95,27.92,0.01,0.21,1016.65,2030.97,3644.01,3084.22,3548.39,0.00,0.00,0.00,0000 0000 0000 A000 020008
2018-10-21 09:33:44,0.00,0.00,0.00,21.42,25.95,27.95,0.01,0.21,1016.66,2030.99,3644.00,3084.11,3548.19,0.00,0.00,0.00,0000 0000 0000 A000 020008
2018-10-21 09:38:45,0.00,0.00,0.00,21.42,25.95,27.96,0.00,0.18,1016.76,2030.98,3644.00,3084.10,3548.18,0.00,0.00,0.00,0000 0000 0000 A000 020008
2018-10-21 09:43:47,0.00,0.00,0.00,21.41,25.95,27.91,0.01,0.22,1016.64,2030.98,3644.00,3084.04,3548.10,0.00,0.00,0.00,0000 0000 0000 A000 020008
2018-10-21 09:48:48,0.00,0.00,0.00,21.41,25.95,27.92,0.01,0.19,1016.70,2030.98,3644.00,3084.03,3548.03,0.00,0.00,0.00,0000 0000 0000 A000 020008
2018-10-21 09:53:49,0.00,0.00,0.00,21.40,25.95,27.92,0.01,0.13,1016.77,2030.98,3644.00,3084.07,3548.08,0.00,0.00,0.00,0000 0000 0000 A000 020008
2018-10-21 09:58:50,0.00,0.00,0.00,21.40,25.95,27.93,0.01,0.08,1016.82,2030.95,3644.00,3084.05,3548.08,0.00,0.00,0.00,0000 0000 0000 A000 020008
2018-10-21 10:03:51,0.00,0.00,0.00,21.42,25.95,27.93,0.01,0.13,1016.88,2030.97,3644.00,3084.03,3548.06,0.00,0.00,0.00,0000 0000 0000 A000 020008
2018-10-21 10:08:52,0.00,0.00,0.00,21.40,25.95,27.90,0.01,0.21,1016.95,2030.96,3644.00,3084.02,3548.03,0.00,0.00,0.00,0000 0000 0000 A000 020008
2018-10-21 10:13:54,0.00,0.00,0.00,21.40,25.95,27.92,0.00,0.19,1016.99,2030.98,3644.00,3084.04,3548.03,0.00,0.00,0.00,0000 0000 0000 A000 020008
2018-10-21 10:18:55,0.00,0.00,0.00,21.40,25.95,27.90,0.01,0.18,1017.09,2030.96,3644.00,3084.06,3548.08,0.00,0.00,0.00,0000 0000 0000 A000 020008
2018-10-21 10:23:56,0.00,0.00,0.00,21.39,25.95,27.91,0.00,0.22,1017.09,2030.98,3644.00,3084.03,3548.06,0.00,0.00,0.00,0000 0000 0000 A000 020008
2018-10-21 10:28:57,0.00,0.00,0.00,21.39,25.95,27.90,0.01,0.15,1017.10,2030.98,3644.00,3084.03,3548.04,0.00,0.00,0.00,0000 0000 0000 A000 020008
2018-10-21 10:33:58,0.00,0.00,0.00,21.39,25.95,27.91,0.01,0.17,1017.10,2030.97,3644.01,3084.04,3548.10,0.00,0.00,0.00,0000 0000 0000 A000 020008
2018-10-21 10:38:59,0.00,0.00,0.00,21.42,25.95,27.92,0.01,0.07,1017.11,2030.98,3644.00,3084.04,3548.09,0.00,0.00,0.00,0000 0000 0000 A000 020008
2018-10-21 10:44:00,0.00,0.00,0.00,21.41,25.95,27.94,0.01,0.01,1017.13,2030.98,3644.00,3084.03,3548.05,0.00,0.00,0.00,0000 0000 0000 A000 020008
2018-10-21 10:49:02,0.00,0.00,0.00,21.39,25.95,27.89,0.01,0.07,1017.12,2030.98,3644.00,3084.07,3548.06,0.00,0.00,0.00,0000 0000 0000 A000 020008
2018-10-21 10:54:03,0.00,0.00,0.00,21.40,25.95,27.89,0.01,0.04,1017.13,2030.96,3644.00,3084.03,3548.04,0.00,0.00,0.00,0000 0000 0000 A000 020008
2018-10-21 10:59:04,0.00,0.00,0.00,21.39,25.95,27.91,0.01,0.00,1017.15,2030.97,3644.00,3084.03,3548.06,0.00,0.00,0.00,0000 0000 0000 A000 020008
2018-10-21 11:04:06,0.00,0.00,0.00,21.39,25.95,27.91,0.01,0.07,1017.18,2030.98,3644.00,3084.03,3548.05,0.00,0.00,0.00,0000 0000 0000 A000 020008
2018-10-21 11:09:07,0.00,0.00,0.00,21.37,25.95,27.89,0.00,0.02,1017.15,2030.98,3644.00,3084.01,3548.01,0.00,0.00,0.00,0000 0000 0000 A000 020008
2018-10-21 11:14:08,0.00,0.00,0.00,21.38,25.95,27.93,0.01,0.02,1017.18,2030.93,3644.00,3084.00,3548.02,0.00,0.00,0.00,0000 0000 0000 A000 020008
2018-10-21 11:19:09,0.00,0.00,0.00,21.38,25.95,27.91,0.01,0.01,1017.18,2030.90,3643.98,3084.00,3548.00,0.00,0.00,0.00,0000 0000 0000 A000 020008
2018-10-21 11:24:10,0.00,0.00,0.00,21.37,25.95,27.88,0.01,0.00,1017.32,2030.92,3643.99,3084.00,3548.00,0.00,0.00,0.00,0000 0000 0000 A000 020008
2018-10-21 11:29:12,0.00,0.00,0.00,21.38,25.95,27.90,0.02,0.01,1017.41,2030.93,3643.99,3084.00,3548.01,0.00,0.00,0.00,0000 0000 0000 A000 020008
2018-10-21 11:34:13,0.00,0.00,0.00,21.37,25.95,27.92,0.01,0.01,1017.37,2030.88,3643.98,3084.00,3548.00,0.00,0.00,0.00,0000 0000 0000 A000 020008
2018-10-21 11:39:14,0.00,0.00,0.00,21.37,25.95,27.95,0.01,0.03,1017.42,2030.89,3643.98,3084.01,3548.00,0.00,0.00,0.00,0000 0000 0000 A000 020008
2018-10-21 11:44:15,0.00,0.00,0.00,21.37,25.95,27.94,0.01,0.00,1017.43,2030.93,3643.99,3084.01,3548.00,0.00,0.00,0.00,0000 0000 0000 A000 020008
2018-10-21 11:49:16,0.00,0.00,0.00,21.38,25.95,27.95,0.01,0.00,1017.44,2030.94,3643.99,3084.02,3548.02,0.00,0.00,0.00,0000 0000 0000 A000 020008
2018-10-21 11:54:17,0.00,0.00,0.00,21.39,25.95,27.90,0.01,0.02,1017.42,2030.97,3643.99,3084.00,3548.03,0.00,0.00,0.00,0000 0000 0000 A000 020008
2018-10-21 11:59:18,0.00,0.00,0.00,21.37,25.95,27.90,0.01,0.02,1017.30,2030.95,3643.99,3084.01,3548.01,0.00,0.00,0.00,0000 0000 0000 A000 020008
2018-10-21 12:04:19,0.00,0.00,0.00,21.39,25.95,27.92,0.01,0.13,1017.16,2030.94,3643.99,3084.01,3548.01,0.00,0.00,0.00,0000 0000 0000 A000 020008
2018-10-21 12:09:20,0.00,0.00,0.00,21.41,25.95,27.92,0.01,0.03,1017.23,2030.96,3643.99,3084.02,3548.01,0.00,0.00,0.00,0000 0000 0000 A000 020008
2018-10-21 12:14:21,0.00,0.00,0.00,21.39,25.95,27.92,0.01,0.00,1017.19,2030.97,3643.99,3084.01,3548.00,0.00,0.00,0.00,0000 0000 0000 A000 020008
2018-10-21 12:19:23,0.00,0.00,0.00,21.40,25.95,27.90,0.01,0.00,1017.15,2030.90,3643.98,3084.01,3548.01,0.00,0.00,0.00,0000 0000 0000 A000 020008
2018-10-21 12:24:24,0.00,0.00,0.00,21.40,25.95,27.92,0.01,0.00,1017.15,2030.85,3643.97,3084.00,3548.00,0.00,0.00,0.00,0000 0000 0000 A000 020008
2018-10-21 12:29:25,0.00,0.00,0.00,21.40,25.95,27.93,0.00,0.00,1017.16,2030.89,3643.97,3084.01,3548.00,0.00,0.00,0.00,0000 0000 0000 A000 020008
2018-10-21 12:34:26,0.00,0.00,0.00,21.42,25.95,27.92,0.00,0.00,1017.25,2030.97,3643.99,3084.02,3548.01,0.00,0.00,0.00,0000 0000 0000 A000 020008
2018-10-21 12:39:28,0.00,0.00,0.00,21.41,25.96,27.93,0.01,0.00,1017.40,2030.96,3643.99,3084.01,3548.01,0.00,0.00,0.00,0000 0000 0000 A000 020008
2018-10-21 12:44:29,0.00,0.00,0.00,21.42,25.96,27.97,0.00,0.00,1017.49,2030.96,3643.99,3084.02,3548.02,0.00,0.00,0.00,0000 0000 0000 A000 020008
2018-10-21 12:49:30,0.00,0.00,0.00,21.42,25.97,27.96,0.00,0.00,1017.53,2030.96,3643.99,3084.02,3548.04,0.00,0.00,0.00,0000 0000 0000 A000 020008
2018-10-21 12:54:32,0.00,0.00,0.00,21.42,25.97,27.99,0.01,0.00,1017.53,2030.97,3643.99,3084.01,3548.04,0.00,0.00,0.00,0000 0000 0000 A000 020008
2018-10-21 12:59:33,0.00,0.00,0.00,21.44,25.97,28.01,0.01,0.00,1017.57,2030.97,3643.99,3084.02,3548.01,0.00,0.00,0.00,0000 0000 0000 A000 020008
2018-10-21 13:04:34,0.00,0.00,0.00,21.44,25.97,28.02,0.01,0.00,1017.59,2030.96,3643.99,3084.02,3548.01,0.00,0.00,0.00,0000 0000 0000 A000 020008
2018-10-21 13:09:35,0.00,0.00,0.00,21.45,25.97,28.00,0.01,0.00,1017.59,2030.96,3643.99,3084.01,3548.00,0.00,0.00,0.00,0000 0000 0000 A000 020008
2018-10-21 13:14:36,0.00,0.00,0.00,21.45,25.97,28.01,0.01,0.00,1017.59,2030.96,3643.99,3084.01,3548.00,0.00,0.00,0.00,0000 0000 0000 A000 020008
2018-10-21 13:19:37,0.00,0.00,0.00,21.46,25.97,28.00,0.01,0.00,1017.59,2030.96,3643.99,3084.01,3548.02,0.00,0.00,0.00,0000 0000 0000 A000 020008
2018-10-21 13:24:38,0.00,0.00,0.00,21.47,25.97,28.00,0.00,0.00,1017.59,2030.96,3643.98,3084.01,3548.00,0.00,0.00,0.00,0000 0000 0000 A000 020008
2018-10-21 13:29:39,0.00,0.00,0.00,21.47,25.99,27.99,0.01,0.00,1017.59,2030.96,3643.98,3084.00,3548.00,0.00,0.00,0.00,0000 0000 0000 A000 020008